Location: Forceville
(50.0605°N, 2.5575°E)
Time: 16:47:15
(UTC+00:00)

Daily predictions for brighter satellites

Satellite Brightness Start Highest point End
(mag) Time Altitude Azimuth Time Altitude Azimuth Time Altitude Azimuth
ATLAS CENTAUR R/B 4.4 19:44:13 10° WNW 19:50:25 63° NNE 20:07:05 10° ESE
IRS-1A Rocket 4.3 19:52:01 10° SSE 19:57:31 89° ENE 20:03:05 10° NNW
USA 234 4.1 19:51:55 10° ENE 19:58:16 55° NNW 20:04:38 10° W
Cosmos 923 Rocket 4.0 19:55:24 10° SSW 20:00:43 73° ESE 20:06:04 10° NNE
OBJECT-B 2.7 19:58:03 10° SSW 20:00:57 31° W 20:03:54 10° NNW
BREEZE-M DEB (TANK) 4.0 20:01:09 10° W 20:04:07 42° SSW 20:11:55 10° SE
Cosmos 2219 Rocket 3.2 19:59:26 10° NNW 20:04:33 35° NE 20:09:39 10° ESE
SJ-6B 4.2 20:04:09 10° SSW 20:07:38 37° W 20:11:10 10° NNW
Resurs 1-3 3.9 20:03:40 10° S 20:08:02 70° WSW 20:12:27 10° NNW
Cosmos 2056 Rocket 3.6 20:04:12 10° NNW 20:09:34 74° ENE 20:14:48 10° SSE
ATLAS 5 CENTAUR R/B 3.0 20:05:38 10° NW 20:10:36 42° NE 20:16:28 10° ESE
USA 186 4.4 20:13:27 10° SW 20:14:58 14° W 20:16:28 10° WNW
Spot 2 Rocket 4.2 20:14:19 10° SE 20:19:02 39° ENE 20:23:46 10° N
SPOT 1/Viking Rocket 3.8 20:15:07 10° SSE 20:20:13 59° ENE 20:25:23 10° N
USA 245 3.9 20:17:05 10° SE 20:20:59 39° ENE 20:24:10 10° N
Cosmos 1092 Rocket 4.1 20:16:02 10° S 20:22:20 90° WNW 20:28:44 10° N
NOSS 2-1 (E) 2.9 20:19:14 10° SSW 20:22:26 54° SE 20:25:49 10° NE
CZ-2C R/B 4.3 20:21:28 10° NNE 20:25:36 35° E 20:29:40 10° SSE
Cosmos 2026 Rocket 4.0 20:19:42 10° S 20:25:59 80° E 20:32:13 10° NNE
SL-16 R/B 3.3 20:20:44 10° NW 20:26:04 42° WSW 20:31:22 10° S
GP-B 3.2 20:24:01 10° N 20:28:27 60° E 20:32:49 10° S
IGS 5A 3.7 20:24:33 10° S 20:28:41 72° WSW 20:32:51 10° NNW
Cosmos 1151 Rocket 3.1 20:26:31 10° N 20:30:55 86° W 20:35:18 10° S
Cosmos 1371 Rocket 4.3 20:26:27 10° NNW 20:31:49 70° WSW 20:37:08 10° SSE
CARTOSAT-1 4.1 20:29:08 12° SE 20:32:55 45° ENE 20:37:03 10° N
NOSS 3-1 (C) 4.1 20:25:36 10° NW 20:32:55 89° NE 20:40:55 13° SE
Cosmos 1680 Rocket 3.6 20:27:53 10° SSW 20:33:10 83° WNW 20:38:27 10° NNE
Cosmos 1271 Rocket 4.2 20:31:11 10° NNW 20:34:54 37° W 20:38:36 10° SSW
Cosmos 2112 Rocket 4.0 20:29:42 10° SSW 20:34:59 89° ESE 20:40:17 10° NNE
Lacrosse 5 3.5 20:33:37 13° SE 20:35:05 14° ESE 20:37:39 10° E
Cosmos 2333 4.2 20:31:17 10° NNW 20:36:55 73° ENE 20:41:51 14° SE
Okean 3 Rocket 3.6 20:33:11 10° S 20:37:41 76° E 20:42:14 10° NNE
ERS-2 2.4 20:37:04 10° N 20:40:43 72° WNW 20:44:19 10° SSW
Meteor 1-10 Rocket 4.3 20:36:20 10° N 20:41:51 62° ENE 20:46:47 13° SSE
MetOp-B 4.2 20:37:06 10° SSE 20:42:28 85° WSW 20:47:53 10° NNW
CZ-4C R/B 4.3 20:39:34 10° NW 20:45:01 29° NNE 20:51:23 10° ENE
COSMOS 2487 3.4 20:45:40 18° SSE 20:47:21 26° ESE 20:50:14 10° NE
Cosmos 1515 Rocket 3.6 20:43:49 10° N 20:48:13 64° ENE 20:51:44 15° SSE
COSMOS 2428 3.0 20:43:50 10° NNW 20:49:28 56° NE 20:53:52 16° SE
GEOS 3 Rocket 3.8 20:44:25 10° NE 20:49:40 78° NW 20:54:47 10° SW
USA 229 DEB 4.0 20:43:54 10° NW 20:51:10 78° NE 20:57:36 16° SE
USA 229 4.0 20:44:00 10° NW 20:51:16 77° NE 20:57:42 16° SE
COSMOS 2455 3.1 20:47:38 10° S 20:53:23 48° ESE 20:59:09 10° NE
Cosmos 292 Rocket 3.9 20:51:11 10° NNW 20:55:58 72° WSW 20:59:58 15° SSE
Cosmos 1328 Rocket 4.0 20:52:51 10° NNW 20:57:14 62° W 21:01:35 10° S
Terra 2.5 20:54:30 17° SE 20:57:44 42° ENE 21:02:13 10° N
Cosmos 2084 Rocket 4.0 20:55:19 10° NW 20:59:21 48° NE 21:02:26 17° ESE
Cosmos 2360 Rocket 2.9 20:53:58 10° NW 20:59:23 50° WSW 21:04:37 11° S
Cosmos 1766 Rocket 4.2 21:00:00 10° SSW 21:04:18 57° WNW 21:08:36 10° N
SPOT 3 Rocket 4.4 21:00:38 10° S 21:05:41 49° W 21:10:45 10° NNW
Cosmos 972 Rocket 4.3 21:01:59 14° SSE 21:06:05 42° ESE 21:10:42 10° NNE
NOSS 2-1 (C) 3.9 21:03:27 10° WSW 21:06:37 49° NW 21:10:03 10° NE
Resurs 01 Rocket 3.3 21:06:48 10° SSW 21:10:44 30° W 21:14:43 10° NNW
NOSS 3-1 (A) 4.1 21:04:24 10° NW 21:11:46 88° SW 21:18:16 19° SE
NOSS 2-1 (D) 4.2 21:11:20 10° WSW 21:14:28 42° NW 21:17:51 10° NE
Cosmos 2266 Rocket 4.1 21:09:42 14° S 21:15:02 62° E 21:21:16 10° NNE
Cosmos 1812 3.9 21:11:57 10° NNW 21:15:34 39° W 21:19:06 10° SSW
Cosmos 1553 Rocket 4.4 21:10:29 10° NNW 21:16:29 61° W 21:22:29 10° S
Cosmos 1862 3.8 21:16:53 10° SSW 21:20:49 58° WNW 21:24:44 10° N
Meteor 2-21 Rocket 4.5 21:17:25 10° S 21:23:37 87° W 21:29:48 10° N
ERS-1 Rocket 2.9 21:20:14 21° SSE 21:23:40 88° WSW 21:28:44 10° NNW
SL-27 R/B 4.1 21:20:23 10° SW 21:23:44 36° WNW 21:27:06 10° N
Cosmos 2228 Rocket 3.2 21:20:13 10° N 21:24:38 62° ENE 21:26:53 28° SSE
Cosmos 2285 Rocket 4.0 21:22:36 10° NNW 21:28:56 89° WSW 21:33:03 23° SSE
Cosmos 2297 Rocket 3.5 21:31:26 20° ESE 21:32:16 21° E 21:36:22 10° NE
Cosmos 1805 Rocket 3.9 21:31:35 29° SSE 21:33:28 49° E 21:37:43 10° NNE
Cosmos 2315 Rocket 4.0 21:27:12 10° N 21:33:34 74° ENE 21:37:36 24° SSE
BREEZE-M DEB (TANK) 2.4 21:27:35 10° W 21:33:40 59° SSW 21:34:37 38° SE
NOSS 0 Rocket 4.0 21:27:54 10° NNW 21:34:09 72° ENE 21:37:53 25° SE
SPOT 5 2.8 21:31:58 23° S 21:34:36 69° WSW 21:39:09 10° NNW
ARIANE 5 R/B 3.1 21:31:52 20° S 21:34:48 57° W 21:39:09 10° NNW
Cosmos 2333 Rocket 2.7 21:29:23 10° NW 21:34:53 53° WSW 21:38:33 21° S
Cosmos 883 Rocket 4.5 21:28:45 10° N 21:35:03 86° E 21:39:17 22° S
Cosmos 2322 Rocket 4.5 21:32:31 10° WNW 21:35:56 17° W 21:39:19 10° SW
Cosmos 2237 Rocket 2.7 21:31:45 10° NNW 21:37:18 51° NE 21:40:34 24° ESE
Cosmos 2322 4.2 21:32:18 10° NW 21:37:52 53° WSW 21:41:29 21° S
USA 234 4.1 21:34:28 10° E 21:40:45 51° N 21:47:02 10° WNW
Cosmos 1452 Rocket 3.9 21:36:13 10° NNW 21:41:23 58° WSW 21:44:29 24° S
Meteor 1-20 Rocket 4.5 21:40:21 27° SSE 21:43:14 52° E 21:48:47 10° NNE
Cosmos 1500 Rocket 3.6 21:40:12 19° SSW 21:43:18 79° WNW 21:47:48 10° N
NOSS 2-2 (E) 4.4 21:39:53 10° NW 21:44:59 73° NE 21:49:13 25° SE
Cosmos 2227 Rocket 3.6 21:44:49 20° ESE 21:45:18 20° E 21:49:15 10° NE
Cosmos 2219 Rocket 2.7 21:43:19 10° NW 21:48:43 50° WSW 21:51:54 23° S
USA 40 PKM 4.2 21:45:30 10° WNW 21:49:20 83° NNE 21:50:40 37° ESE
USA 102 3.2 21:50:35 76° NE 21:50:35 76° NE 21:58:35 10° NNW
Sich 1 3.0 21:53:28 39° SSE 21:54:53 62° E 21:59:10 10° NNE
ATLAS 5 CENTAUR R/B 2.6 21:50:04 10° NW 21:55:29 56° SW 21:58:39 29° S
Cosmos 1515 3.6 21:52:48 10° N 21:56:36 69° E 21:57:27 49° SE
Cosmos 1331 Rocket 3.9 21:52:03 10° NNW 21:57:18 85° WSW 21:59:36 35° SSE
Meteor 1-27 Rocket 4.2 21:52:06 10° NNW 21:57:41 56° W 22:01:24 22° SSW
Cosmos 1110 Rocket 4.1 21:53:24 10° NNW 21:58:44 76° WSW 22:01:08 33° S
Cosmos 1743 Rocket 4.4 22:02:46 17° SSW 22:06:00 49° WNW 22:10:19 10° N
SL-16 R/B 3.3 22:04:27 10° NNW 22:09:42 36° NE 22:12:56 20° ESE
NOSS 2-2 (C) 4.3 22:05:55 10° NW 22:11:00 86° NE 22:14:24 31° SE
Cosmos 1633 Rocket 3.4 22:10:51 41° ESE 22:11:31 45° E 22:15:41 10° NNE
Cosmos 494 Rocket 3.9 22:11:18 21° SSW 22:14:43 82° WNW 22:19:54 10° NNE
Cosmos 1666 4.1 22:15:50 25° E 22:15:50 25° E 22:18:48 10° NNE
Lacrosse 5 1.8 22:12:21 11° SW 22:17:11 62° SE 22:22:12 10° ENE
Cosmos 1666 Rocket 3.5 22:21:09 50° SSE 22:22:10 70° E 22:26:38 10° NNE
APEX 4.4 22:17:43 19° SSW 22:22:17 88° ESE 22:29:11 10° NNE
Cosmos 1602 3.7 22:22:55 56° SSW 22:23:40 81° W 22:27:31 10° N
SL-08 ROCKET BODY 4.5 22:21:32 36° SSE 22:24:03 65° E 22:30:11 10° NNE
Nadezhda 2 Rocket 4.5 22:23:48 31° S 22:27:04 86° E 22:33:33 10° N
Cosmos 1340 Rocket 4.2 22:28:39 25° E 22:28:39 25° E 22:31:35 10° NE
COSMOS 2428 4.0 22:28:36 10° NW 22:33:25 29° WSW 22:35:52 21° SW
Cosmos 1244 Rocket 4.4 22:30:49 34° S 22:33:46 88° E 22:40:03 10° N
CZ-4C R/B 3.4 22:28:13 10° NW 22:34:58 57° NE 22:41:11 17° ESE
Terra 3.3 22:33:24 20° SW 22:35:37 28° W 22:39:45 10° NW
Meteor 1-25 Rocket 4.4 22:33:38 28° SSW 22:36:38 69° WNW 22:42:12 10° N
COBE Rocket 3.7 22:36:50 51° S 22:38:01 85° WSW 22:42:49 10° NNW
Meteor 2-4 Rocket 3.8 22:32:46 10° N 22:38:44 77° ENE 22:40:46 42° SSE
CZ-3B R/B 2.4 22:31:03 10° WNW 22:39:19 53° SW 22:39:48 49° SSW
COSMOS 2455 4.0 22:33:43 10° WSW 22:39:26 43° NW 22:45:11 10° NNE
Timation 2 Rocket 4.4 22:39:26 36° SE 22:40:28 39° ESE 22:46:09 10° NE
Cosmos 1992 Rocket 4.3 22:36:23 10° NNW 22:41:33 56° ENE 22:43:15 38° ESE
Cosmos 2242 Rocket 4.4 22:39:39 10° N 22:43:50 38° ENE 22:44:34 36° E
Cosmos 1862 Rocket 3.4 22:40:17 10° NNW 22:44:39 80° W 22:45:19 62° SSW
Meteor 1-18 Rocket 4.4 22:41:29 10° NNW 22:47:16 68° W 22:49:18 40° SSW
USA 267 3.8 22:41:54 10° ENE 22:47:49 35° SE 22:48:10 35° SE
Cosmos 2219 3.2 22:48:18 45° S 22:49:52 63° ESE 22:55:34 10° NE
Meteor 1-5 Rocket 4.4 22:49:36 44° SSE 22:51:18 63° E 22:57:11 10° NNE
Okean 1 4.1 22:48:38 10° NNW 22:52:24 40° W 22:52:58 38° WSW
Spot 4 3.8 22:52:09 55° S 22:53:14 82° WSW 22:58:07 10° NNW
Cosmos 1302 Rocket 4.3 22:51:11 10° NNW 22:56:16 54° WSW 22:57:32 43° SSW
Cosmos 1500 3.6 22:59:15 52° WSW 22:59:40 55° WNW 23:03:29 10° N
Cosmos 1980 4.3 22:54:35 10° NW 22:59:56 43° WSW 23:01:25 36° SSW
Cosmos 1703 Rocket 3.8 22:56:31 10° N 23:00:50 56° ENE 23:01:20 52° ESE
Cosmos 2082 4.3 23:01:12 38° ESE 23:01:48 39° ESE 23:07:05 10° NE
SL-08 R/B 4.5 23:00:49 37° SSW 23:03:24 77° W 23:09:34 10° N
Cosmos 1378 3.5 23:00:30 10° N 23:03:58 56° ENE 23:03:58 56° ENE
Cosmos 909 Rocket 4.3 23:02:47 40° S 23:05:11 61° ESE 23:12:58 10° NE
Meteor 1-11 Rocket 4.2 23:05:19 38° ESE 23:06:21 42° E 23:11:32 10° NNE
Okean 1-7 3.0 23:05:00 10° N 23:09:15 66° ENE 23:09:33 63° ESE
Cosmos 1269 Rocket 4.1 23:10:36 40° SW 23:12:29 74° WNW 23:17:48 10° NNE
Cosmos 2297 Rocket 2.3 23:13:12 35° SW 23:15:43 76° WNW 23:21:25 10° NNE
Meteor 2-17 Rocket 4.3 23:15:38 47° S 23:17:29 81° E 23:23:33 10° NNE
Cosmos 2237 Rocket 3.2 23:16:10 10° NW 23:21:10 33° WSW 23:22:23 30° SW
USA 234 3.3 23:18:04 16° ESE 23:23:26 79° NNE 23:30:00 10° WNW
ALOS 2 2.5 23:23:09 66° SW 23:23:29 70° WSW 23:27:54 10° NNW
Cosmos 1461 3.6 23:27:18 43° E 23:27:18 43° E 23:30:54 10° NE
Meteor 1-13 Rocket 4.1 23:21:39 10° NNW 23:27:25 89° E 23:28:50 53° SSE
Cosmos 1709 Rocket 4.0 23:26:19 46° SSE 23:28:17 73° E 23:34:40 10° NNE
Cosmos 2227 Rocket 2.2 23:26:36 41° SW 23:28:41 79° WNW 23:34:24 10° NNE
SL-24 R/B - RUBIN 2 4.5 23:25:41 10° NW 23:30:46 51° NE 23:32:45 31° E
Cosmos 2263 Rocket 3.4 23:33:28 27° ESE 23:33:56 27° ESE 23:38:37 10° NE
Cosmos 1745 Rocket 4.2 23:35:14 37° SW 23:37:42 63° WNW 23:44:00 10° N
ATLAS 5 CENTAUR R/B 4.5 23:37:10 10° W 23:39:24 12° WSW 23:40:09 12° WSW
Cosmos 1536 2.9 23:40:44 69° ENE 23:40:44 69° ENE 23:44:35 10° NNE
PSLV R/B 4.4 23:37:45 10° NNE 23:42:17 41° E 23:42:34 41° ESE
Okean 3 3.3 23:41:25 10° N 23:45:42 89° WSW 23:45:46 87° S
Cosmos 1241 Rocket 4.4 23:44:35 44° SSW 23:46:52 79° SE 23:53:23 10° NE
Cosmos 1869 Rocket 3.5 23:47:06 72° SE 23:47:18 74° E 23:51:46 10° NNE
Cosmos 44 3.3 23:45:36 10° NW 23:50:52 72° SW 23:51:26 65° S
Cosmos 1666 4.1 23:50:39 29° W 23:51:03 29° WNW 23:54:27 10° N
Thor Agena Rocket 3.6 23:46:55 10° NNE 23:51:54 56° ESE 23:52:34 52° SE
SL-16 R/B 2.5 23:48:33 10° NW 23:53:59 48° WSW 23:54:47 45° SW
